OBJECT U, 63228

Orbit data source: Space-Track

You're viewing an Uncataloged Satellite

Recently launched and/or uncataloged satellites may have evolving metadata. Metadata may include but not limited to: Owner, Maufacturer, Bus, Motor, and Mission.

OBJECT U, 63228 is a satellite in SSO that was launched on Sat, 15 Mar 2025 UTC via an FALCON 9 launch vehicle from the Air Force Western Test Range (AFWTR). Unknown objects in Earth's orbit typically refer to objects detected orbiting the Earth but have not yet been identified or cataloged. These objects could be anything from previously untracked satellites, spent rocket stages, debris from satellite collisions, or even natural meteoroids temporarily captured by Earth's gravity.

Loading next visibility...
Identifier
63228, 2025-052U
Orbit
SSO
Country
Flag of TBDTBD
Related business
None
Manufacturer
Unknown
Mission
Operational Commercial Technology
Bus & Motor
Unknown
Mass
Unknown
Launch date (UTC)
2025-03-15 (7 months ago)
Launch vehicle
FALCON 9
Launch site
Air Force Western Test Range (AFWTR)
Object type
Unknown
Shape & HBR
Box, 1.1 m
Radar Cross Section
0.054 m², Small (<0.1 m²)

Expand to show TLE details & history
Last TLE update: 9 hours ago

TLE from 9 hours ago
0 OBJECT U
1 63228U 25052U   25299.63724542  .00008373  00000-0  39141-3 0  9997
2 63228  97.4134 190.9932 0003496 240.5444 119.5443 15.20027703 34347
Epoch: 2025-10-26T15:17Z
TLE epoch observation values (Epoch: 2025-10-26T15:17:38.004Z)
Latitude
0.00003°
Longitude
-73.66574°
Altitude
510.035 km
Speed
7.608 km/s
True Right ascension
12h 43m 58s
True Declination
0° 00' 00"
Sunlit
Object was in daylight at epoch
Visualization orbit readout
Latitude
Unknown
Longitude
Unknown
Altitude
Unknown
Speed
Unknown
Apparent Right ascension
Unknown
Apparent Declination
Unknown
Sunlit
N/A
Visualization observer readout
Local Sidereal Time
20:01:13
Azimuth
Unknown
Elevation
Unknown
Doppler factor
Unknown
Orbital elements
Apogee altitude
505.129 km
Perigee altitude
500.318 km
Semi-major axis
6,880.86 km
Eccentricity
0.00035
Inclination
97.4134°
RAAN
190.9932°
Arg. of periapsis
240.5444°
True anomaly
119.57914°
Mean anomaly
119.5443°
Eccentric anomaly
119.56172°
Mean motion
3.80259 °/min
Orbital period
94.67 mins
BSTAR
0.00039141
Loading maneuver chart data...
Computing Atmospheric mass density...
Loading historical data...
Loading historical data...
Loading historical data...
Loading historical data...
Loading historical data...
Loading historical data...
Loading historical data...

Documentation

Showing up to 5 results
|